314P/Montani (2016)

Japanese version
Home page
Updated on June 3, 2017

---------------------------------------------------------------------

* Profile

Designation 314P/2014 U1
Recovery Date October 21, 2014
Magnitude 20.4 mag
Recoverer G. V. Williams, T. H. Bressi and A. F. Tubbiolo (Spacewatch, Kitt Peak)

* Pictures

* Orbital Elements

Epoch 2016 Oct. 19.0 TT = JDT 2457680.5
T 2016 Oct. 7.86414 TT                                  MPCW
q   4.2337646            (2000.0)            P               Q
n   0.05037361     Peri.  213.74136     -0.52035275     -0.85113263
a   7.2610704      Node   267.70434     +0.79801653     -0.45576510
e   0.4169228      Incl.    3.97854     +0.30397801     -0.26048305
P  19.57
From 355 observations 1997 Apr. 9-2017 Mar. 30, mean residual 0".5.

* Magnitudes Graph

        m1 = 9.0 + 5 log d + 10.0 log r

---------------------------------------------------------------------

The orbital elements are published on M.P.E.C. 2017-J52.
The magnitudes graphs are made with Comet for Windows.

---------------------------------------------------------------------

Copyright(C) Seiichi Yoshida (comet@aerith.net). All rights reserved.